Historique des stations

Station météo de Culan

Altitude de la station : 276 m







Données météorologiques pour le 16/09/2021
Date
Heure
Températures Humidité Point de rosée Vitesse
du vent
Direction Rafales Windchill Pression Pluviométrie
Cumul
Date
Heure
Températures Humidité Point de rosée Vitesse
du vent
Direction Rafales Windchill Pression Pluviométrie
Cumul
16/09/2021 12:5720.3 °C85 %17.8 °C-ONO2 km/h20.6 1017 hPa0.2 mm
16/09/2021 12:4120.1 °C86 %17.8 °C---20.0 1017 hPa0.2 mm
16/09/2021 12:2619.6 °C89 %17.8 °C---19.4 1017 hPa0.2 mm
16/09/2021 12:1018.8 °C90 %17.2 °C---18.9 1017 hPa0.2 mm
16/09/2021 11:5418.6 °C91 %17.2 °C---18.9 1017 hPa0.2 mm
16/09/2021 11:3918.4 °C92 %17.2 °C---18.3 1017 hPa0.2 mm
16/09/2021 11:2418.3 °C94 %17.2 °C---18.3 1017 hPa0.2 mm
16/09/2021 11:0817.9 °C95 %17.2 °C---17.8 1017 hPa0.2 mm
16/09/2021 10:5317.6 °C95 %16.7 °C---17.8 1017 hPa0.2 mm
16/09/2021 10:3717.6 °C95 %16.7 °C---17.8 1017 hPa0.2 mm
16/09/2021 10:2217.4 °C95 %16.7 °C---17.2 1016 hPa0.2 mm
16/09/2021 10:0717.5 °C95 %16.7 °C---17.8 1016 hPa0.2 mm
16/09/2021 09:5117.4 °C96 %16.7 °C---17.2 1016 hPa0.2 mm
16/09/2021 09:3617.3 °C96 %16.7 °C---17.2 1016 hPa0.2 mm
16/09/2021 09:2117.3 °C96 %16.7 °C---17.2 1016 hPa0.2 mm
16/09/2021 09:0517.1 °C97 %16.7 °C---17.2 1016 hPa0.2 mm
16/09/2021 08:5016.9 °C96 %16.1 °C---16.7 1016 hPa0.2 mm
16/09/2021 08:3416.8 °C96 %16.1 °C---16.7 1016 hPa0.2 mm
16/09/2021 08:1916.8 °C96 %16.1 °C---16.7 1016 hPa0.2 mm
16/09/2021 08:0416.7 °C96 %16.1 °C---16.7 1015 hPa0.2 mm
16/09/2021 07:4816.7 °C96 %16.1 °C---16.7 1015 hPa0.2 mm
16/09/2021 07:3316.7 °C96 %16.1 °C---16.7 1015 hPa0.2 mm
16/09/2021 07:1816.7 °C96 %16.1 °C---16.7 1015 hPa0.2 mm
16/09/2021 07:0216.7 °C96 %16.1 °C---16.7 1015 hPa0.2 mm
16/09/2021 06:5316.6 °C96 %16.1 °C---16.7 1015 hPa0.2 mm
16/09/2021 06:3716.6 °C96 %16.1 °C---16.7 1015 hPa0.2 mm
16/09/2021 06:3316.7 °C96 %16.1 °C---16.7 1015 hPa0.2 mm
16/09/2021 06:1816.6 °C96 %16.1 °C---16.7 1015 hPa0.2 mm
16/09/2021 06:0216.4 °C96 %16.1 °C---16.7 1015 hPa0.2 mm
16/09/2021 05:4716.3 °C96 %15.6 °C---16.1 1015 hPa0.2 mm
16/09/2021 05:3216.4 °C95 %15.6 °C---16.7 1015 hPa0.2 mm
16/09/2021 05:1616.6 °C96 %16.1 °C---16.7 1015 hPa0.2 mm
16/09/2021 05:0116.7 °C95 %16.1 °C---16.7 1014 hPa-
16/09/2021 04:4617.0 °C95 %16.1 °C---17.2 1014 hPa-
16/09/2021 04:3017.2 °C96 %16.7 °C---17.2 1015 hPa-
16/09/2021 04:1517.2 °C95 %16.7 °C---17.2 1015 hPa-
16/09/2021 03:5917.4 °C96 %16.7 °C---17.2 1015 hPa-
16/09/2021 03:4417.4 °C96 %16.7 °C---17.2 1015 hPa-
16/09/2021 03:2917.3 °C95 %16.7 °C---17.2 1015 hPa-
16/09/2021 03:1317.4 °C95 %16.7 °C---17.2 1015 hPa-
16/09/2021 02:5817.4 °C96 %16.7 °C---17.2 1015 hPa-
16/09/2021 02:4217.3 °C95 %16.7 °C---17.2 1015 hPa-
16/09/2021 02:2717.4 °C95 %16.7 °C---17.2 1015 hPa-
16/09/2021 02:1217.4 °C95 %16.7 °C---17.2 1015 hPa-
16/09/2021 01:5617.6 °C95 %16.7 °C---17.8 1015 hPa-
16/09/2021 01:4117.7 °C95 %17.2 °C---17.8 1015 hPa-
16/09/2021 01:2617.8 °C94 %16.7 °C---17.8 1015 hPa-
16/09/2021 01:1017.9 °C95 %17.2 °C---17.8 1015 hPa-
16/09/2021 00:5517.9 °C94 %17.2 °C---17.8 1015 hPa-
16/09/2021 00:4018.1 °C94 %17.2 °C---18.3 1015 hPa-
16/09/2021 00:2418.2 °C94 %17.2 °C---18.3 1015 hPa-
16/09/2021 00:0918.3 °C93 %17.2 °C---18.3 1015 hPa-


Minima :

Température : 16.3 °C
Humidité : 85 %
Point de rosée : 15.6 °C
Vent moyen : - km/h
Windchill : 16.1
Pression atm. : 1014 hPa
Maxima :

Température : 20.3 °C
Humidité : 97 %
Point de rosée : 17.8 °C
Vent moyen : 0 km/h
Windchill : 20.6
Pression atm. : 1017 hPa
Rafales max : 2 km/h
Cumul de pluie sur 24H : 0.2 mm

Culan est une commune du département Cher (18).
La station météorologique du réseau de l'association la plus proche de Culan est celle de Beddes



Icône Facebook Association Météo Centre Icône Twitter Association Météo Centre Icône Chaîne Youtube Association Météo Centre Icône contact Association Météo Centre Icône Insta Association Météo Centre